Hourly Weather Barnislawice

Today, 26 September, Saturday

Time Temperature Precipitation Wind Pressure Humidity
00:00 +12°C° 0 mm 2 mps 744 mmHg 88%
01:00 +12°C° 0 mm 1 mps 744 mmHg 89%
02:00 +12°C° 0 mm 2 mps 744 mmHg 89%
03:00 +12°C° 0 mm 2 mps 744 mmHg 89%
04:00 +12°C° 0 mm 2 mps 743 mmHg 89%
05:00 +11°C° 0 mm 3 mps 743 mmHg 89%
06:00 +12°C° 0 mm 3 mps 743 mmHg 88%
07:00 +13°C° 0 mm 4 mps 743 mmHg 88%
08:00 +13°C° 0.2 mm 5 mps 742 mmHg 89%
09:00 +13°C° 0.2 mm 6 mps 742 mmHg 89%
10:00 +14°C° 0.2 mm 7 mps 742 mmHg 90%
11:00 +14°C° 0.7 mm 7 mps 742 mmHg 91%
12:00 +15°C° 0.7 mm 7 mps 741 mmHg 93%
13:00 +15°C° 0.7 mm 7 mps 740 mmHg 94%
14:00 +16°C° 0.2 mm 6 mps 740 mmHg 91%
15:00 +17°C° 0.2 mm 6 mps 740 mmHg 88%
16:00 +19°C° 0.2 mm 6 mps 740 mmHg 84%
17:00 +17°C° 0.4 mm 6 mps 740 mmHg 86%
18:00 +17°C° 0.4 mm 6 mps 740 mmHg 88%
19:00 +17°C° 0.4 mm 6 mps 741 mmHg 90%
20:00 +15°C° 0 mm 5 mps 742 mmHg 91%
21:00 +14°C° 0 mm 5 mps 743 mmHg 92%
22:00 +13°C° 0 mm 4 mps 744 mmHg 92%
23:00 +12°C° 0 mm 4 mps 744 mmHg 93%

Tomorrow, 27 September, Sunday

Time Temperature Precipitation Wind Pressure Humidity
00:00 +11°C° 0 mm 3 mps 745 mmHg 93%
01:00 +10°C° 0 mm 2 mps 745 mmHg 93%
02:00 +10°C° 0 mm 2 mps 746 mmHg 92%
03:00 +12°C° 0 mm 2 mps 746 mmHg 91%
04:00 +12°C° 0 mm 2 mps 746 mmHg 90%
05:00 +12°C° 1 mm 2 mps 746 mmHg 92%
06:00 +11°C° 1 mm 3 mps 746 mmHg 93%
07:00 +11°C° 1 mm 3 mps 746 mmHg 94%
08:00 +12°C° 0.3 mm 3 mps 746 mmHg 93%
09:00 +13°C° 0.3 mm 3 mps 746 mmHg 92%
10:00 +14°C° 0.3 mm 3 mps 746 mmHg 91%
11:00 +16°C° 0.1 mm 3 mps 746 mmHg 89%
12:00 +16°C° 0.1 mm 3 mps 746 mmHg 88%
13:00 +17°C° 0.1 mm 3 mps 746 mmHg 87%
14:00 +17°C° 0.2 mm 3 mps 746 mmHg 87%
15:00 +17°C° 0.2 mm 3 mps 746 mmHg 87%
16:00 +16°C° 0.2 mm 3 mps 746 mmHg 87%
17:00 +16°C° 0.1 mm 3 mps 747 mmHg 89%
18:00 +14°C° 0.1 mm 3 mps 747 mmHg 90%
19:00 +13°C° 0.1 mm 3 mps 747 mmHg 92%
20:00 +13°C° 0 mm 3 mps 747 mmHg 91%
21:00 +14°C° 0 mm 2 mps 748 mmHg 90%
22:00 +14°C° 0 mm 2 mps 748 mmHg 89%
23:00 +14°C° 0 mm 2 mps 748 mmHg 89%

Day after tomorrow, 28 September, Monday

Time Temperature Precipitation Wind Pressure Humidity
00:00 +13°C° 0 mm 3 mps 748 mmHg 90%
01:00 +13°C° 0 mm 3 mps 749 mmHg 90%
02:00 +12°C° 0 mm 3 mps 749 mmHg 92%
03:00 +12°C° 0 mm 3 mps 749 mmHg 93%
04:00 +11°C° 0 mm 3 mps 749 mmHg 95%
05:00 +11°C° 0 mm 3 mps 749 mmHg 93%
06:00 +11°C° 0 mm 4 mps 750 mmHg 92%
07:00 +11°C° 0 mm 4 mps 750 mmHg 91%
08:00 +11°C° 0 mm 4 mps 751 mmHg 89%
09:00 +12°C° 0 mm 5 mps 751 mmHg 86%
10:00 +12°C° 0 mm 5 mps 752 mmHg 84%
11:00 +13°C° 0 mm 5 mps 752 mmHg 78%
12:00 +14°C° 0 mm 6 mps 752 mmHg 72%
13:00 +15°C° 0 mm 6 mps 752 mmHg 67%
14:00 +15°C° 0 mm 5 mps 753 mmHg 64%
15:00 +16°C° 0 mm 5 mps 753 mmHg 62%
16:00 +17°C° 0 mm 4 mps 753 mmHg 60%
17:00 +15°C° 0 mm 4 mps 753 mmHg 64%
18:00 +13°C° 0 mm 3 mps 753 mmHg 68%
19:00 +12°C° 0 mm 3 mps 754 mmHg 72%
20:00 +11°C° 0 mm 3 mps 754 mmHg 75%
21:00 +11°C° 0 mm 3 mps 754 mmHg 77%
22:00 +10°C° 0 mm 3 mps 754 mmHg 80%
23:00 +10°C° 0 mm 3 mps 754 mmHg 83%

29 September, Tuesday

Time Temperature Precipitation Wind Pressure Humidity
00:00 +10°C° 0 mm 3 mps 754 mmHg 87%
01:00 +10°C° 0 mm 3 mps 755 mmHg 91%
02:00 +10°C° 0 mm 2 mps 755 mmHg 92%
03:00 +10°C° 0 mm 2 mps 755 mmHg 93%
04:00 +9°C° 0 mm 2 mps 755 mmHg 93%
05:00 +10°C° 0 mm 2 mps 755 mmHg 93%
06:00 +10°C° 0 mm 2 mps 755 mmHg 92%
07:00 +11°C° 0 mm 1 mps 755 mmHg 92%
08:00 +12°C° 0 mm 1 mps 755 mmHg 84%
09:00 +14°C° 0 mm 1 mps 755 mmHg 76%
10:00 +16°C° 0 mm 1 mps 755 mmHg 69%
11:00 +18°C° 0 mm 1 mps 756 mmHg 66%
12:00 +19°C° 0 mm 1 mps 756 mmHg 62%
13:00 +18°C° 0 mm 0 mps 756 mmHg 59%
14:00 +20°C° 0 mm 1 mps 756 mmHg 61%
15:00 +19°C° 0 mm 1 mps 756 mmHg 63%
16:00 +19°C° 0 mm 1 mps 756 mmHg 64%
17:00 +16°C° 0 mm 1 mps 756 mmHg 72%
18:00 +15°C° 0 mm 1 mps 756 mmHg 79%
19:00 +13°C° 0 mm 1 mps 756 mmHg 86%
20:00 +13°C° 0 mm 1 mps 756 mmHg 87%
21:00 +13°C° 0 mm 1 mps 757 mmHg 88%
22:00 +13°C° 0 mm 1 mps 757 mmHg 88%
23:00 +13°C° 0 mm 1 mps 757 mmHg 89%

30 September, Wednesday

Time Temperature Precipitation Wind Pressure Humidity
00:00 +13°C° 0 mm 1 mps 757 mmHg 89%
01:00 +13°C° 0 mm 1 mps 757 mmHg 89%
02:00 +13°C° 0 mm 1 mps 756 mmHg 90%
03:00 +13°C° 0 mm 1 mps 756 mmHg 90%
04:00 +13°C° 0 mm 1 mps 756 mmHg 91%
05:00 +13°C° 0 mm 1 mps 756 mmHg 90%
06:00 +13°C° 0 mm 1 mps 756 mmHg 90%
07:00 +13°C° 0 mm 1 mps 756 mmHg 89%
08:00 +15°C° 0 mm 1 mps 756 mmHg 83%
09:00 +16°C° 0 mm 1 mps 756 mmHg 77%
10:00 +18°C° 0 mm 2 mps 757 mmHg 71%
11:00 +18°C° 0.1 mm 2 mps 756 mmHg 71%
12:00 +18°C° 0.1 mm 3 mps 756 mmHg 71%
13:00 +18°C° 0.1 mm 3 mps 756 mmHg 71%
14:00 +18°C° 0.1 mm 3 mps 756 mmHg 74%
15:00 +17°C° 0.1 mm 3 mps 756 mmHg 77%
16:00 +17°C° 0.1 mm 3 mps 755 mmHg 80%
17:00 +16°C° 0 mm 2 mps 755 mmHg 84%
18:00 +15°C° 0 mm 2 mps 755 mmHg 87%
19:00 +15°C° 0 mm 2 mps 755 mmHg 91%
20:00 +15°C° 0 mm 2 mps 755 mmHg 92%
21:00 +14°C° 0 mm 2 mps 755 mmHg 92%
22:00 +14°C° 0 mm 1 mps 755 mmHg 93%
23:00 +14°C° 0 mm 1 mps 755 mmHg 93%

1 October, Thursday

Time Temperature Precipitation Wind Pressure Humidity
00:00 +14°C° 0 mm 1 mps 754 mmHg 94%
01:00 +14°C° 0 mm 1 mps 754 mmHg 94%
02:00 +14°C° 0 mm 1 mps 754 mmHg 94%
03:00 +14°C° 0 mm 1 mps 754 mmHg 94%
04:00 +14°C° 0 mm 1 mps 753 mmHg 94%
05:00 +14°C° 0 mm 1 mps 753 mmHg 95%
06:00 +14°C° 0 mm 1 mps 753 mmHg 95%
07:00 +14°C° 0 mm 1 mps 753 mmHg 96%
08:00 +15°C° 0 mm 1 mps 753 mmHg 89%
09:00 +16°C° 0 mm 1 mps 752 mmHg 83%
10:00 +17°C° 0 mm 2 mps 752 mmHg 76%
11:00 +18°C° 0 mm 2 mps 752 mmHg 75%
12:00 +18°C° 0 mm 2 mps 751 mmHg 73%
13:00 +19°C° 0 mm 3 mps 751 mmHg 72%
14:00 +18°C° 0 mm 3 mps 750 mmHg 75%
15:00 +17°C° 0 mm 3 mps 750 mmHg 78%
16:00 +17°C° 0 mm 3 mps 750 mmHg 81%
17:00 +16°C° 0.2 mm 3 mps 750 mmHg 85%
18:00 +14°C° 0.2 mm 3 mps 750 mmHg 88%
19:00 +15°C° 0.2 mm 2 mps 749 mmHg 92%
20:00 +14°C° 0.4 mm 2 mps 749 mmHg 93%
21:00 +14°C° 0.4 mm 2 mps 749 mmHg 94%
22:00 +14°C° 0.4 mm 2 mps 749 mmHg 95%
23:00 +14°C° 0.2 mm 2 mps 748 mmHg 94%
Show more